CAX8416 ZPPP-ZSAM

Flight info

Callsign CAX8416
Flight time N/A
Altitude 37100
Route K0859S1130 LXI9Y LXI A599 POU G471 SHL W22 GUBLO R200 BEBEM A470 TEBON TEBON8X
Aircraft B738/M-SDE2E3FGHIRWXY/LB1

Departure

Time 2026-05-08 04:12
Airport Kunming Changshui International Airport (ZPPP)

Arrival

Time N/A
Airport Xiamen Gaoqi International Airport (ZSAM)
Time Latitude Longitude Altitude Speed Heading
2026-05-08 03:46 25.10758 102.92942 6902 ft 0 kts 220°
2026-05-08 03:52 25.10757 102.92942 6902 ft 0 kts 220°
2026-05-08 03:57 25.10768 102.92951 6902 ft 4 kts 220°
2026-05-08 03:57 25.10789 102.92970 6902 ft 4 kts 220°
2026-05-08 03:57 25.10810 102.92989 6902 ft 4 kts 220°
2026-05-08 03:57 25.10826 102.93005 6902 ft 4 kts 244°
2026-05-08 03:58 25.10828 102.93031 6901 ft 4 kts 294°
2026-05-08 03:58 25.10817 102.93051 6901 ft 0 kts 308°
2026-05-08 04:00 25.10817 102.93050 6901 ft 0 kts 308°
2026-05-08 04:01 25.10824 102.93041 6901 ft 3 kts 309°
2026-05-08 04:01 25.10843 102.93015 6901 ft 6 kts 308°
2026-05-08 04:01 25.10873 102.92974 6902 ft 8 kts 309°
2026-05-08 04:01 25.10909 102.92923 6902 ft 8 kts 308°
2026-05-08 04:02 25.10960 102.92918 6902 ft 8 kts 33°
2026-05-08 04:02 25.11005 102.92956 6902 ft 8 kts 38°
2026-05-08 04:02 25.11047 102.92993 6902 ft 8 kts 38°
2026-05-08 04:02 25.11060 102.93044 6902 ft 7 kts 114°
2026-05-08 04:03 25.11029 102.93089 6901 ft 7 kts 128°
2026-05-08 04:03 25.10952 102.93196 6901 ft 11 kts 129°
2026-05-08 04:03 25.10900 102.93268 6900 ft 13 kts 128°
2026-05-08 04:04 25.10839 102.93353 6898 ft 15 kts 129°
2026-05-08 04:04 25.10768 102.93451 6897 ft 17 kts 128°
2026-05-08 04:04 25.10690 102.93559 6895 ft 19 kts 128°
2026-05-08 04:04 25.10609 102.93670 6894 ft 19 kts 129°
2026-05-08 04:05 25.10530 102.93781 6893 ft 18 kts 128°
2026-05-08 04:05 25.10452 102.93888 6892 ft 18 kts 128°
2026-05-08 04:05 25.10378 102.93989 6892 ft 16 kts 133°
2026-05-08 04:05 25.10283 102.93974 6893 ft 16 kts 219°
2026-05-08 04:06 25.10200 102.93901 6892 ft 15 kts 218°
2026-05-08 04:06 25.10118 102.93830 6892 ft 15 kts 218°
2026-05-08 04:06 25.10030 102.93754 6893 ft 17 kts 218°
2026-05-08 04:06 25.09936 102.93671 6893 ft 18 kts 218°
2026-05-08 04:07 25.09836 102.93584 6893 ft 19 kts 218°
2026-05-08 04:07 25.09735 102.93496 6894 ft 18 kts 218°
2026-05-08 04:07 25.09636 102.93411 6894 ft 18 kts 218°
2026-05-08 04:07 25.09542 102.93329 6895 ft 17 kts 218°
2026-05-08 04:08 25.09451 102.93250 6895 ft 16 kts 218°
2026-05-08 04:08 25.09363 102.93174 6896 ft 16 kts 218°
2026-05-08 04:08 25.09285 102.93106 6896 ft 4 kts 218°
2026-05-08 04:08 25.09264 102.93092 6896 ft 4 kts 205°
2026-05-08 04:09 25.09236 102.93087 6896 ft 5 kts 176°
2026-05-08 04:09 25.09213 102.93102 6895 ft 0 kts 130°
2026-05-08 04:09 25.09213 102.93103 6895 ft 1 kts 130°
2026-05-08 04:10 25.09202 102.93117 6895 ft 4 kts 130°
2026-05-08 04:10 25.09173 102.93156 6895 ft 9 kts 129°
2026-05-08 04:10 25.09146 102.93221 6894 ft 10 kts 66°
2026-05-08 04:10 25.09190 102.93262 6894 ft 0 kts 39°
2026-05-08 04:11 25.09214 102.93282 6894 ft 25 kts 38°
2026-05-08 04:11 25.09562 102.93585 6893 ft 101 kts 38°
2026-05-08 04:11 25.10293 102.94222 6893 ft 164 kts 38°
2026-05-08 04:11 25.11286 102.95142 7124 ft 199 kts 39°
2026-05-08 04:12 25.12386 102.96057 8083 ft 198 kts 35°
2026-05-08 04:12 25.13325 102.97184 8820 ft 208 kts 59°
2026-05-08 04:12 25.14145 102.98586 9065 ft 233 kts 56°
2026-05-08 04:12 25.15121 103.00142 9257 ft 259 kts 54°
2026-05-08 04:13 25.16215 103.01816 9624 ft 277 kts 54°
2026-05-08 04:13 25.17372 103.03554 10378 ft 282 kts 54°
2026-05-08 04:13 25.18228 103.05504 11166 ft 286 kts 80°
2026-05-08 04:13 25.18161 103.07694 11920 ft 288 kts 108°
2026-05-08 04:14 25.17305 103.09673 12640 ft 292 kts 126°
2026-05-08 04:14 25.16130 103.11534 13362 ft 298 kts 129°
2026-05-08 04:14 25.14912 103.13419 14098 ft 303 kts 128°
2026-05-08 04:14 25.13701 103.15319 14768 ft 310 kts 128°
2026-05-08 04:15 25.12339 103.17184 15327 ft 316 kts 142°
2026-05-08 04:15 25.10541 103.18726 15521 ft 338 kts 148°
2026-05-08 04:15 25.09255 103.19765 15649 ft 354 kts 148°
2026-05-08 04:15 25.07066 103.21176 15775 ft 369 kts 165°
2026-05-08 04:16 25.04543 103.21634 15896 ft 377 kts 187°
2026-05-08 04:16 25.01990 103.20978 16255 ft 377 kts 208°